GW5211 Weather Reports


time (UTC)temp
C
wind
direction
speed
KPH
gust
KPH
rain 1hr
cm
rain 24hr
cm
rain mn
cm
humidity
%
barometer
mb
20260504215004 27 298 12.9 20.9 0.00 0.00 0.00 52 1012.7
20260504213504 28 326 11.3 19.3 0.00 0.00 0.00 50 1012.9
20260504213004 30 229 8.0 12.9 0.00 0.00 0.00 47 1012.3
20260504212004 29 88 4.8 11.3 0.00 0.00 0.00 44 1012.5
20260504211504 29 143 8.0 16.1 0.00 0.00 0.00 44 1012.2
20260504211004 29 121 1.6 12.9 0.00 0.00 0.00 44 1012.2
20260504210503 28 163 3.2 8.0 0.00 0.00 0.00 44 1012.3
20260504210004 28 147 3.2 4.8 0.00 0.00 0.00 44 1012.8
20260504205503 28 4 3.2 11.3 0.00 0.00 0.00 45 1013.5
20260504205003 29 128 11.3 20.9 0.00 0.00 0.00 44 1013.1
20260504204503 29 102 4.8 12.9 0.00 0.00 0.00 46 1012.4
20260504204004 29 124 1.6 9.7 0.00 0.00 0.00 43 1013.2
20260504203004 29 103 4.8 9.7 0.00 0.00 0.00 44 1012.4
20260504202003 29 127 4.8 11.3 0.00 0.00 0.00 46 1012.6
20260504201504 29 116 4.8 14.5 0.00 0.00 0.00 45 1012.7
20260504201004 29 122 3.2 11.3 0.00 0.00 0.00 44 1012.4
20260504200504 29 98 4.8 11.3 0.00 0.00 0.00 44 1013.0
20260504200004 30 100 6.4 12.9 0.00 0.00 0.00 44 1012.9
20260504195504 29 57 1.6 9.7 0.00 0.00 0.00 44 1012.5
20260504195004 29 101 4.8 12.9 0.00 0.00 0.00 45 1012.7
20260504194504 29 81 4.8 9.7 0.00 0.00 0.00 44 1012.8
20260504194004 28 138 3.2 12.9 0.00 0.00 0.00 45 1013.3
20260504193504 29 104 4.8 12.9 0.00 0.00 0.00 45 1012.7
20260504192503 28 84 4.8 11.3 0.00 0.00 0.00 45 1013.4
20260504192003 28 108 3.2 12.9 0.00 0.00 0.00 47 1014.0
20260504191503 28 5 6.4 14.5 0.00 0.00 0.00 46 1013.4
20260504191004 29 356 6.4 12.9 0.00 0.00 0.00 45 1014.3
20260504190504 29 45 3.2 11.3 0.00 0.00 0.00 46 1013.7
20260504190004 28 47 3.2 14.5 0.00 0.00 0.00 44 1013.0
20260504185504 28 93 6.4 14.5 0.00 0.00 0.00 48 1013.3
20260504185004 28 134 9.7 14.5 0.00 0.00 0.00 45 1013.4
20260504184504 28 115 4.8 11.3 0.00 0.00 0.00 45 1013.2
20260504184004 28 113 3.2 11.3 0.00 0.00 0.00 47 1013.4
20260504183004 28 49 3.2 14.5 0.00 0.00 0.00 47 1014.4
20260504182504 28 112 3.2 14.5 0.00 0.00 0.00 47 1014.6
20260504181504 28 116 4.8 12.9 0.00 0.00 0.00 47 1015.1
20260504180504 29 53 6.4 11.3 0.00 0.00 0.00 47 1014.3
20260504180004 28 109 3.2 9.7 0.00 0.00 0.00 46 1014.1
20260504175504 28 143 4.8 11.3 0.00 0.00 0.00 46 1014.2
20260504175003 28 80 4.8 11.3 0.00 0.00 0.00 45 1014.6
20260504173004 27 110 3.2 12.9 0.00 0.00 0.00 47 1014.3
20260504172504 27 38 3.2 11.3 0.00 0.00 0.00 47 1014.4
20260504172004 27 126 8.0 12.9 0.00 0.00 0.00 48 1014.5
20260504171503 27 114 4.8 14.5 0.00 0.00 0.00 48 1014.4
20260504171004 27 69 6.4 12.9 0.00 0.00 0.00 49 1014.6
20260504170504 27 76 6.4 12.9 0.00 0.00 0.00 48 1014.6
20260504140504 23 94 8.0 16.1 0.00 0.00 0.00 64 1015.1
20260504130504 22 43 4.8 9.7 0.00 0.00 0.00 73 1014.8
20260504100504 17 87 0.0 3.2 0.00 0.00 0.00 87 1015.4
20260504082004 18 127 1.6 4.8 0.00 0.00 0.00 84 1015.4
20260504081004 18 10 1.6 8.0 0.00 0.00 0.00 83 1015.2
20260504080503 18 41 3.2 8.0 0.00 0.00 0.00 83 1015.2
20260504050504 20 51 1.6 3.2 0.00 0.00 0.00 79 1016.2
20260504050004 21 28 0.0 4.8 0.00 0.00 0.00 79 1016.2
20260504045503 21 98 1.6 4.8 0.00 0.00 0.00 78 1016.2
20260504045004 21 75 1.6 4.8 0.00 0.00 0.00 78 1016.3
20260504044504 21 76 3.2 4.8 0.00 0.00 0.00 78 1016.1
20260504044004 21 73 3.2 9.7 0.00 0.00 0.00 78 1015.9
20260504043504 21 75 4.8 9.7 0.00 0.00 0.00 78 1015.9
20260504043004 21 59 3.2 11.3 0.00 0.00 0.00 78 1016.1
20260504042504 21 74 3.2 8.0 0.00 0.00 0.00 77 1016.3
20260504042004 21 72 3.2 9.7 0.00 0.00 0.00 77 1016.4
20260504041504 21 90 3.2 11.3 0.00 0.00 0.00 76 1016.5
20260504041004 21 79 1.6 4.8 0.00 0.00 0.00 76 1016.4
20260504040004 21 48 3.2 8.0 0.00 0.89 0.00 75 1016.5
20260504035504 21 60 3.2 8.0 0.00 0.89 0.00 75 1016.5
20260504035004 21 60 1.6 4.8 0.00 0.89 0.00 75 1016.5
20260504034504 21 61 3.2 8.0 0.00 0.89 0.00 74 1016.4
20260504034004 21 73 1.6 8.0 0.00 0.89 0.00 74 1016.5
20260504033504 21 31 1.6 8.0 0.00 0.89 0.00 73 1016.5
20260504032504 21 23 1.6 4.8 0.00 0.89 0.00 73 1016.5
20260504032004 21 35 1.6 4.8 0.00 0.89 0.00 73 1016.5
20260504031503 21 17 3.2 4.8 0.00 0.89 0.00 72 1016.4
20260504031004 21 26 1.6 3.2 0.00 0.89 0.00 72 1016.6
20260504030504 22 49 1.6 4.8 0.00 0.89 0.00 71 1016.6
20260504030004 22 27 3.2 9.7 0.00 0.89 0.00 70 1016.4
20260504025504 22 50 3.2 8.0 0.00 0.89 0.00 69 1016.2
20260504025004 22 66 3.2 8.0 0.00 0.89 0.00 70 1016.1
20260504024504 21 51 1.6 8.0 0.00 0.89 0.00 70 1016.1
20260504024004 21 57 3.2 8.0 0.00 0.89 0.00 71 1016.1
20260504023004 21 73 4.8 9.7 0.00 0.89 0.00 72 1016.1
20260504022504 22 53 1.6 4.8 0.00 0.89 0.00 72 1016.1
20260504022004 22 70 3.2 4.8 0.00 0.89 0.00 71 1016.1
20260504021504 22 0 3.2 8.0 0.00 0.89 0.00 71 1016.1
20260504021003 22 55 1.6 11.3 0.00 0.89 0.00 71 1015.9
20260504020504 22 51 3.2 4.8 0.00 0.89 0.00 71 1015.7
20260504015503 22 70 3.2 8.0 0.00 0.89 0.00 71 1015.8
20260504015004 22 77 3.2 9.7 0.00 0.89 0.00 70 1015.7
20260504014504 22 125 3.2 11.3 0.00 0.89 0.00 70 1015.6
20260504014004 22 65 3.2 11.3 0.00 0.89 0.00 70 1015.5
20260504013504 22 19 4.8 9.7 0.00 0.89 0.00 71 1015.4
20260504013004 22 26 3.2 8.0 0.00 0.89 0.00 71 1015.5
20260504012504 22 37 3.2 8.0 0.00 0.89 0.00 70 1015.5
20260504011504 22 52 3.2 8.0 0.00 0.89 0.00 70 1015.4
20260504011004 23 32 3.2 11.3 0.00 0.89 0.00 70 1015.2
20260504010504 23 18 8.0 14.5 0.00 0.89 0.00 69 1015.0
20260504010004 23 15 4.8 14.5 0.00 0.89 0.00 69 1015.1
20260504005504 23 1 9.7 16.1 0.00 0.89 0.00 68 1014.9
20260504005004 23 4 8.0 14.5 0.00 0.89 0.00 69 1014.9
20260504004503 23 5 6.4 14.5 0.00 0.89 0.00 68 1014.9
20260504004004 23 356 8.0 19.3 0.00 0.89 0.00 68 1014.8
20260504003504 23 356 4.8 19.3 0.00 0.89 0.00 67 1014.9
20260504003004 23 34 8.0 14.5 0.00 0.89 0.00 67 1014.8
20260504002504 23 348 6.4 14.5 0.00 0.89 0.00 67 1014.8
20260504002004 23 358 8.0 16.1 0.00 0.89 0.00 67 1014.7
20260504001503 23 347 6.4 19.3 0.00 0.89 0.00 67 1014.7
20260504001004 23 0 8.0 19.3 0.00 0.89 0.00 66 1014.8
20260504000504 23 332 4.8 14.5 0.00 0.89 0.00 66 1014.8
20260504000004 23 341 8.0 19.3 0.00 0.89 0.00 65 1014.6
20260503235004 23 328 8.0 12.9 0.00 0.89 0.00 65 1014.6
20260503234504 23 350 8.0 14.5 0.00 0.89 0.00 65 1014.6
20260503234004 23 358 8.0 20.9 0.00 0.89 0.00 64 1014.7
20260503233004 24 341 4.8 12.9 0.00 0.89 0.00 64 1014.6
20260503232503 24 335 4.8 11.3 0.00 0.89 0.00 63 1014.5
20260503231004 25 349 9.7 19.3 0.00 0.89 0.00 62 1014.5
20260503230503 25 344 9.7 16.1 0.00 0.89 0.00 62 1014.4
20260503225504 25 4 9.7 12.9 0.00 0.89 0.00 63 1014.4
20260503225004 25 13 4.8 9.7 0.00 0.89 0.00 63 1014.3
20260503224504 25 332 8.0 19.3 0.00 0.89 0.00 62 1014.4
20260503224003 25 329 8.0 16.1 0.00 0.89 0.00 62 1014.3
20260503223504 25 334 8.0 14.5 0.00 0.89 0.00 62 1014.3
20260503223004 25 299 8.0 14.5 0.00 0.89 0.00 61 1014.3
20260503222503 25 327 8.0 19.3 0.00 0.89 0.00 63 1014.5
20260503222004 25 325 9.7 16.1 0.00 0.89 0.00 62 1014.4
20260503221004 25 2 8.0 16.1 0.00 0.89 0.00 61 1014.3
20260503220504 25 336 4.8 14.5 0.00 0.91 0.00 61 1014.4
20260503220004 25 333 8.0 11.3 0.00 0.91 0.00 61 1014.2
20260503215504 25 328 8.0 14.5 0.00 0.91 0.00 60 1014.1